When you browse on this site, cookies collect data to enhance your experience and personalize the content and advertising you see.
Visit our Privacy Policy to learn more. By continuing to use the site, you agree to this use of cookies and data.
  • In Denmark
  • List of Countries
  • For 7 days
  • Water Temperature
  • Satellite Maps
  • Weather Map
  • Weather Widgets
  • user-avatar
    Login

    Hourly Weather Swansea

    Today, 26 May, Sunday

    Time Temperature Precipitation Wind Pressure Humidity
    00:00 +12°C° 0 mm 3 mps 761 mmHg 98%
    01:00 +12°C° 0 mm 3 mps 761 mmHg 98%
    02:00 +13°C° 0 mm 4 mps 761 mmHg 98%
    03:00 +13°C° 0 mm 4 mps 760 mmHg 98%
    04:00 +13°C° 0 mm 5 mps 760 mmHg 98%
    05:00 +13°C° 0 mm 5 mps 760 mmHg 97%
    06:00 +14°C° 0 mm 6 mps 759 mmHg 97%
    07:00 +14°C° 0.2 mm 6 mps 759 mmHg 97%
    08:00 +14°C° 0.2 mm 6 mps 759 mmHg 97%
    09:00 +14°C° 0.2 mm 6 mps 759 mmHg 97%
    10:00 +14°C° 0.5 mm 6 mps 758 mmHg 96%
    11:00 +14°C° 0.5 mm 5 mps 758 mmHg 96%
    12:00 +15°C° 0.5 mm 5 mps 758 mmHg 95%
    13:00 +15°C° 0.1 mm 5 mps 758 mmHg 91%
    14:00 +15°C° 0.1 mm 5 mps 758 mmHg 88%
    15:00 +15°C° 0.1 mm 5 mps 758 mmHg 85%
    16:00 +15°C° 0 mm 5 mps 758 mmHg 82%
    17:00 +14°C° 0 mm 5 mps 758 mmHg 80%
    18:00 +14°C° 0 mm 5 mps 758 mmHg 78%
    19:00 +13°C° 0 mm 5 mps 758 mmHg 82%
    20:00 +12°C° 0 mm 4 mps 759 mmHg 87%
    21:00 +11°C° 0 mm 4 mps 759 mmHg 91%
    22:00 +10°C° 0 mm 4 mps 759 mmHg 92%
    23:00 +10°C° 0 mm 4 mps 759 mmHg 92%

    Tomorrow, 27 May, Monday

    Time Temperature Precipitation Wind Pressure Humidity
    00:00 +10°C° 0 mm 4 mps 759 mmHg 93%
    01:00 +8°C° 0 mm 4 mps 758 mmHg 93%
    02:00 +8°C° 0 mm 4 mps 758 mmHg 94%
    03:00 +8°C° 0 mm 4 mps 758 mmHg 94%
    04:00 +8°C° 0 mm 5 mps 758 mmHg 93%
    05:00 +9°C° 0 mm 5 mps 758 mmHg 92%
    06:00 +10°C° 0 mm 5 mps 758 mmHg 90%
    07:00 +12°C° 0.1 mm 5 mps 758 mmHg 86%
    08:00 +11°C° 0.1 mm 6 mps 758 mmHg 82%
    09:00 +13°C° 0.1 mm 6 mps 758 mmHg 78%
    10:00 +14°C° 0.2 mm 7 mps 758 mmHg 78%
    11:00 +14°C° 0.2 mm 7 mps 757 mmHg 77%
    12:00 +14°C° 0.2 mm 7 mps 757 mmHg 77%
    13:00 +14°C° 0.2 mm 7 mps 757 mmHg 78%
    14:00 +13°C° 0.2 mm 8 mps 757 mmHg 79%
    15:00 +13°C° 0.2 mm 8 mps 757 mmHg 80%
    16:00 +12°C° 0.2 mm 8 mps 757 mmHg 80%
    17:00 +12°C° 0.2 mm 8 mps 757 mmHg 81%
    18:00 +12°C° 0.2 mm 7 mps 756 mmHg 81%
    19:00 +11°C° 0.1 mm 7 mps 756 mmHg 83%
    20:00 +10°C° 0.1 mm 7 mps 757 mmHg 85%
    21:00 +9°C° 0.1 mm 6 mps 757 mmHg 87%
    22:00 +8°C° 0 mm 6 mps 756 mmHg 88%
    23:00 +8°C° 0 mm 6 mps 756 mmHg 89%

    Day after tomorrow, 28 May, Tuesday

    Time Temperature Precipitation Wind Pressure Humidity
    00:00 +8°C° 0 mm 6 mps 756 mmHg 89%
    01:00 +8°C° 0 mm 6 mps 756 mmHg 90%
    02:00 +8°C° 0 mm 7 mps 756 mmHg 90%
    03:00 +6°C° 0 mm 7 mps 756 mmHg 90%
    04:00 +8°C° 0.3 mm 7 mps 756 mmHg 91%
    05:00 +7°C° 0.3 mm 8 mps 756 mmHg 92%
    06:00 +9°C° 0.3 mm 8 mps 756 mmHg 93%
    07:00 +9°C° 0.1 mm 8 mps 756 mmHg 92%
    08:00 +9°C° 0.1 mm 8 mps 757 mmHg 91%
    09:00 +8°C° 0.1 mm 9 mps 757 mmHg 89%
    10:00 +10°C° 0 mm 8 mps 758 mmHg 86%
    11:00 +10°C° 0 mm 8 mps 758 mmHg 83%
    12:00 +11°C° 0 mm 8 mps 759 mmHg 80%
    13:00 +11°C° 0 mm 7 mps 759 mmHg 78%
    14:00 +12°C° 0 mm 7 mps 759 mmHg 77%
    15:00 +12°C° 0 mm 7 mps 759 mmHg 75%
    16:00 +12°C° 0 mm 7 mps 760 mmHg 75%
    17:00 +11°C° 0 mm 7 mps 760 mmHg 76%
    18:00 +11°C° 0 mm 6 mps 760 mmHg 76%
    19:00 +9°C° 0 mm 6 mps 761 mmHg 82%
    20:00 +8°C° 0 mm 5 mps 761 mmHg 87%
    21:00 +7°C° 0 mm 4 mps 762 mmHg 92%
    22:00 +6°C° 0 mm 4 mps 762 mmHg 92%
    23:00 +7°C° 0 mm 3 mps 763 mmHg 92%

    29 May, Wednesday

    Time Temperature Precipitation Wind Pressure Humidity
    00:00 +5°C° 0 mm 3 mps 763 mmHg 93%
    01:00 +6°C° 0 mm 2 mps 763 mmHg 92%
    02:00 +6°C° 0 mm 2 mps 763 mmHg 92%
    03:00 +6°C° 0 mm 1 mps 763 mmHg 92%
    04:00 +7°C° 0 mm 1 mps 763 mmHg 89%
    05:00 +8°C° 0 mm 1 mps 763 mmHg 86%
    06:00 +9°C° 0 mm 1 mps 763 mmHg 83%
    07:00 +11°C° 0 mm 1 mps 763 mmHg 77%
    08:00 +12°C° 0 mm 2 mps 763 mmHg 71%
    09:00 +13°C° 0 mm 3 mps 763 mmHg 65%
    10:00 +13°C° 0 mm 3 mps 763 mmHg 70%
    11:00 +13°C° 0 mm 4 mps 763 mmHg 74%
    12:00 +13°C° 0 mm 5 mps 763 mmHg 78%
    13:00 +13°C° 0 mm 5 mps 763 mmHg 80%
    14:00 +13°C° 0 mm 5 mps 762 mmHg 82%
    15:00 +13°C° 0 mm 6 mps 762 mmHg 84%
    16:00 +13°C° 0.2 mm 6 mps 762 mmHg 89%
    17:00 +14°C° 0.2 mm 7 mps 761 mmHg 93%
    18:00 +14°C° 0.2 mm 7 mps 761 mmHg 97%
    19:00 +14°C° 0.1 mm 7 mps 761 mmHg 97%
    20:00 +14°C° 0.1 mm 7 mps 761 mmHg 97%
    21:00 +14°C° 0.1 mm 7 mps 761 mmHg 97%
    22:00 +14°C° 0.1 mm 7 mps 761 mmHg 97%
    23:00 +14°C° 0.1 mm 7 mps 761 mmHg 98%

    30 May, Thursday

    Time Temperature Precipitation Wind Pressure Humidity
    00:00 +14°C° 0.1 mm 7 mps 761 mmHg 98%
    01:00 +14°C° 0.2 mm 7 mps 761 mmHg 97%
    02:00 +13°C° 0.2 mm 8 mps 761 mmHg 97%
    03:00 +12°C° 0.2 mm 8 mps 761 mmHg 97%
    04:00 +13°C° 0.5 mm 8 mps 761 mmHg 97%
    05:00 +13°C° 0.5 mm 8 mps 761 mmHg 97%
    06:00 +13°C° 0.5 mm 8 mps 761 mmHg 97%
    07:00 +14°C° 0.2 mm 7 mps 761 mmHg 97%
    08:00 +14°C° 0.2 mm 7 mps 762 mmHg 97%
    09:00 +14°C° 0.2 mm 7 mps 762 mmHg 96%
    10:00 +15°C° 0.1 mm 7 mps 762 mmHg 96%
    11:00 +15°C° 0.1 mm 7 mps 762 mmHg 95%
    12:00 +15°C° 0.1 mm 7 mps 763 mmHg 95%
    13:00 +15°C° 0.1 mm 6 mps 763 mmHg 94%
    14:00 +16°C° 0.1 mm 6 mps 763 mmHg 93%
    15:00 +16°C° 0.1 mm 6 mps 763 mmHg 93%
    16:00 +16°C° 0.1 mm 6 mps 763 mmHg 93%
    17:00 +16°C° 0.1 mm 5 mps 763 mmHg 92%
    18:00 +16°C° 0.1 mm 5 mps 764 mmHg 92%
    19:00 +15°C° 0 mm 4 mps 764 mmHg 94%
    20:00 +14°C° 0 mm 4 mps 765 mmHg 96%
    21:00 +13°C° 0 mm 3 mps 765 mmHg 98%
    22:00 +13°C° 0 mm 3 mps 766 mmHg 98%
    23:00 +14°C° 0 mm 2 mps 766 mmHg 98%

    31 May, Friday

    Time Temperature Precipitation Wind Pressure Humidity
    00:00 +13°C° 0 mm 2 mps 766 mmHg 98%
    01:00 +13°C° 0 mm 1 mps 767 mmHg 98%
    02:00 +13°C° 0 mm 1 mps 767 mmHg 97%
    03:00 +13°C° 0 mm 1 mps 767 mmHg 97%
    04:00 +13°C° 0 mm 1 mps 767 mmHg 96%
    05:00 +14°C° 0 mm 1 mps 768 mmHg 95%
    06:00 +14°C° 0 mm 0 mps 768 mmHg 94%
    07:00 +16°C° 0 mm 1 mps 769 mmHg 91%
    08:00 +16°C° 0 mm 1 mps 769 mmHg 89%
    09:00 +17°C° 0 mm 2 mps 770 mmHg 87%
    10:00 +17°C° 0.1 mm 2 mps 770 mmHg 87%
    11:00 +18°C° 0.1 mm 2 mps 770 mmHg 86%
    12:00 +18°C° 0.1 mm 3 mps 770 mmHg 85%
    13:00 +19°C° 0 mm 3 mps 770 mmHg 83%
    14:00 +19°C° 0 mm 3 mps 770 mmHg 80%
    15:00 +20°C° 0 mm 3 mps 771 mmHg 77%
    16:00 +20°C° 0 mm 3 mps 771 mmHg 80%
    17:00 +19°C° 0 mm 2 mps 771 mmHg 83%
    18:00 +18°C° 0 mm 2 mps 771 mmHg 86%
    19:00 +17°C° 0 mm 2 mps 771 mmHg 89%
    20:00 +16°C° 0 mm 2 mps 771 mmHg 93%
    21:00 +15°C° 0 mm 2 mps 771 mmHg 96%
    22:00 +15°C° 0 mm 2 mps 772 mmHg 97%
    23:00 +15°C° 0 mm 2 mps 772 mmHg 97%
    Show more